This demonstration page uses our WeatherBlox Daily Observations layout. Learn more.

Left ArrowRight Arrow

39.29038, -76.61219

Hourly Observations for November 26, 2016

Temp ( °F °C ) Dew Point ( °F °C ) Humidity (%) Winds ( mph kmh ) Pressure ( in mb ) Visibility ( mi km ) Precip ( " mm )
12:54 am 00:54 undefined 50 10 38 3.3 63 63 undefined N/A 30.17 1022 N/A 0.00 0.00
1:54 am 01:54 undefined 48 8.9 35 1.7 61 61 undefined N/A 30.17 1022 N/A 0.00 0.00
2:54 am 02:54 undefined 48 8.9 34 1.1 58 58 undefined N/A 30.17 1022 N/A 0.00 0.00
3:54 am 03:54 undefined 47 8.3 33 0.6 59 59 undefined N/A 30.15 1021 N/A 0.00 0.00
4:54 am 04:54 undefined 46 7.8 33 0.6 61 61 undefined N/A 30.16 1021 N/A 0.00 0.00
5:54 am 05:54 undefined 45 7.2 33 0.6 63 63 undefined N/A 30.16 1022 N/A 0.00 0.00
6:54 am 06:54 undefined 44 6.7 32 0 63 63 undefined N/A 30.17 1022 N/A 0.00 0.00
7:54 am 07:54 undefined 44 6.7 32 0 63 63 undefined N/A 30.19 1022 N/A 0.00 0.00
8:54 am 08:54 undefined 47 8.3 32 0 56 56 undefined N/A 30.19 1023 N/A 0.00 0.00
9:54 am 09:54 undefined 47 8.3 30 -1.1 52 52 undefined N/A 30.19 1023 N/A 0.00 0.00
10:54 am 10:54 undefined 48 8.9 30 -1.1 50 50 undefined N/A 30.20 1023 N/A 0.00 0.00
11:54 am 11:54 undefined 48 8.9 29 -1.7 48 48 undefined N/A 30.19 1022 N/A 0.00 0.00
12:54 pm 12:54 undefined 50 10 29 -1.7 44 44 undefined N/A 30.16 1021 N/A 0.00 0.00
1:54 pm 13:54 undefined 50 10 29 -1.7 44 44 undefined N/A 30.14 1021 N/A 0.00 0.00
2:54 pm 14:54 undefined 50 10 29 -1.7 44 44 undefined N/A 30.15 1021 N/A 0.00 0.00
3:54 pm 15:54 undefined 49 9.4 29 -1.7 46 46 undefined N/A 30.16 1022 N/A 0.00 0.00
4:54 pm 16:54 undefined 47 8.3 29 -1.7 50 50 undefined N/A 30.17 1022 N/A 0.00 0.00
5:54 pm 17:54 undefined 47 8.3 29 -1.7 50 50 undefined N/A 30.18 1022 N/A 0.00 0.00
6:54 pm 18:54 undefined 46 7.8 29 -1.7 51 51 undefined N/A 30.18 1022 N/A 0.00 0.00
7:54 pm 19:54 undefined 46 7.8 29 -1.7 51 51 undefined N/A 30.18 1022 N/A 0.00 0.00
8:54 pm 20:54 undefined 44 6.7 29 -1.7 55 55 undefined N/A 30.19 1022 N/A 0.00 0.00
9:54 pm 21:54 undefined 43 6.1 29 -1.7 58 58 undefined N/A 30.18 1022 N/A 0.00 0.00
10:54 pm 22:54 undefined 43 6.1 29 -1.7 58 58 undefined N/A 30.18 1022 N/A 0.00 0.00
11:54 pm 23:54 undefined 42 5.6 29 -1.7 60 60 undefined N/A 30.17 1022 N/A 0.00 0.00

Powered by AerisWeather